When you browse on this site, cookies collect data to enhance your experience and personalize the content and advertising you see.
Visit our Privacy Policy to learn more. By continuing to use the site, you agree to this use of cookies and data.
  • In Latvia
  • List of Countries
  • For 7 days
  • Water Temperature
  • Weather Map
  • Weather Widgets
  • user-avatar
    Login

    Hourly Weather Newcastle

    Today, 4 June, Thursday

    Time Temperature Precipitation Wind Pressure Humidity
    00:00 +9°C° 0 mm 6 mps 770 mmHg 79%
    01:00 +8°C° 0 mm 6 mps 770 mmHg 81%
    02:00 +8°C° 0.1 mm 6 mps 771 mmHg 80%
    03:00 +8°C° 0.1 mm 6 mps 771 mmHg 80%
    04:00 +7°C° 0.1 mm 5 mps 771 mmHg 79%
    05:00 +8°C° 0.2 mm 5 mps 772 mmHg 78%
    06:00 +8°C° 0.2 mm 5 mps 772 mmHg 76%
    07:00 +8°C° 0.2 mm 5 mps 772 mmHg 75%
    08:00 +9°C° 0.1 mm 5 mps 772 mmHg 72%
    09:00 +12°C° 0.1 mm 5 mps 773 mmHg 69%
    10:00 +13°C° 0.1 mm 5 mps 773 mmHg 67%
    11:00 +13°C° 0.1 mm 5 mps 772 mmHg 65%
    12:00 +14°C° 0.1 mm 5 mps 772 mmHg 64%
    13:00 +15°C° 0.1 mm 5 mps 771 mmHg 63%
    14:00 +15°C° 0.2 mm 5 mps 771 mmHg 67%
    15:00 +14°C° 0.2 mm 5 mps 771 mmHg 71%
    16:00 +14°C° 0.2 mm 5 mps 771 mmHg 75%
    17:00 +13°C° 0.1 mm 4 mps 771 mmHg 80%
    18:00 +12°C° 0.1 mm 4 mps 772 mmHg 84%
    19:00 +11°C° 0.1 mm 4 mps 772 mmHg 88%
    20:00 +10°C° 0 mm 3 mps 772 mmHg 90%
    21:00 +10°C° 0 mm 3 mps 772 mmHg 91%
    22:00 +9°C° 0 mm 2 mps 773 mmHg 92%
    23:00 +9°C° 0 mm 3 mps 772 mmHg 93%

    Tomorrow, 5 June, Friday

    Time Temperature Precipitation Wind Pressure Humidity
    00:00 +8°C° 0 mm 3 mps 772 mmHg 94%
    01:00 +8°C° 0 mm 3 mps 772 mmHg 95%
    02:00 +8°C° 0 mm 3 mps 771 mmHg 95%
    03:00 +7°C° 0 mm 2 mps 771 mmHg 95%
    04:00 +7°C° 0 mm 2 mps 771 mmHg 95%
    05:00 +7°C° 0 mm 2 mps 771 mmHg 95%
    06:00 +7°C° 0 mm 2 mps 771 mmHg 95%
    07:00 +6°C° 0 mm 2 mps 771 mmHg 95%
    08:00 +9°C° 0 mm 2 mps 771 mmHg 86%
    09:00 +12°C° 0 mm 2 mps 771 mmHg 77%
    10:00 +14°C° 0 mm 2 mps 771 mmHg 68%
    11:00 +15°C° 0 mm 2 mps 770 mmHg 62%
    12:00 +17°C° 0 mm 2 mps 769 mmHg 55%
    13:00 +19°C° 0 mm 1 mps 769 mmHg 48%
    14:00 +19°C° 0 mm 1 mps 768 mmHg 52%
    15:00 +18°C° 0 mm 1 mps 768 mmHg 56%
    16:00 +18°C° 0 mm 1 mps 768 mmHg 60%
    17:00 +15°C° 0 mm 2 mps 768 mmHg 65%
    18:00 +13°C° 0 mm 2 mps 768 mmHg 70%
    19:00 +12°C° 0 mm 2 mps 769 mmHg 75%
    20:00 +10°C° 0 mm 2 mps 769 mmHg 78%
    21:00 +9°C° 0 mm 2 mps 769 mmHg 80%
    22:00 +9°C° 0 mm 2 mps 769 mmHg 82%
    23:00 +8°C° 0 mm 2 mps 769 mmHg 83%

    Day after tomorrow, 6 June, Saturday

    Time Temperature Precipitation Wind Pressure Humidity
    00:00 +8°C° 0 mm 2 mps 768 mmHg 84%
    01:00 +8°C° 0 mm 2 mps 768 mmHg 85%
    02:00 +7°C° 0 mm 2 mps 768 mmHg 85%
    03:00 +7°C° 0 mm 3 mps 768 mmHg 85%
    04:00 +7°C° 0 mm 3 mps 768 mmHg 85%
    05:00 +5°C° 0 mm 3 mps 768 mmHg 85%
    06:00 +5°C° 0 mm 3 mps 768 mmHg 86%
    07:00 +5°C° 0 mm 3 mps 768 mmHg 86%
    08:00 +8°C° 0 mm 2 mps 768 mmHg 77%
    09:00 +12°C° 0 mm 2 mps 768 mmHg 69%
    10:00 +14°C° 0 mm 2 mps 768 mmHg 60%
    11:00 +15°C° 0 mm 2 mps 767 mmHg 57%
    12:00 +18°C° 0 mm 1 mps 766 mmHg 55%
    13:00 +19°C° 0 mm 1 mps 766 mmHg 52%
    14:00 +19°C° 0 mm 1 mps 766 mmHg 56%
    15:00 +18°C° 0 mm 1 mps 765 mmHg 61%
    16:00 +16°C° 0 mm 1 mps 765 mmHg 65%
    17:00 +14°C° 0 mm 1 mps 765 mmHg 72%
    18:00 +13°C° 0 mm 1 mps 766 mmHg 79%
    19:00 +10°C° 0 mm 2 mps 766 mmHg 85%
    20:00 +9°C° 0 mm 2 mps 766 mmHg 87%
    21:00 +9°C° 0 mm 2 mps 766 mmHg 89%
    22:00 +9°C° 0 mm 2 mps 766 mmHg 91%
    23:00 +8°C° 0 mm 2 mps 766 mmHg 91%

    7 June, Sunday

    Time Temperature Precipitation Wind Pressure Humidity
    00:00 +8°C° 0 mm 2 mps 766 mmHg 91%
    01:00 +7°C° 0 mm 2 mps 765 mmHg 90%
    02:00 +7°C° 0 mm 2 mps 765 mmHg 89%
    03:00 +7°C° 0 mm 2 mps 765 mmHg 87%
    04:00 +6°C° 0 mm 2 mps 764 mmHg 86%
    05:00 +6°C° 0 mm 2 mps 765 mmHg 85%
    06:00 +6°C° 0 mm 2 mps 765 mmHg 84%
    07:00 +6°C° 0 mm 2 mps 765 mmHg 82%
    08:00 +8°C° 0 mm 2 mps 765 mmHg 74%
    09:00 +10°C° 0 mm 2 mps 765 mmHg 66%
    10:00 +12°C° 0 mm 3 mps 765 mmHg 58%
    11:00 +13°C° 0 mm 3 mps 765 mmHg 55%
    12:00 +16°C° 0 mm 3 mps 764 mmHg 52%
    13:00 +17°C° 0 mm 3 mps 764 mmHg 49%
    14:00 +16°C° 0 mm 3 mps 764 mmHg 56%
    15:00 +14°C° 0 mm 3 mps 764 mmHg 62%
    16:00 +14°C° 0 mm 4 mps 764 mmHg 68%
    17:00 +12°C° 0.1 mm 4 mps 765 mmHg 74%
    18:00 +11°C° 0.1 mm 4 mps 765 mmHg 81%
    19:00 +10°C° 0.1 mm 4 mps 766 mmHg 88%
    20:00 +9°C° 0.6 mm 5 mps 766 mmHg 90%
    21:00 +9°C° 0.6 mm 6 mps 767 mmHg 93%
    22:00 +8°C° 0.6 mm 7 mps 767 mmHg 95%
    23:00 +9°C° 2.6 mm 6 mps 767 mmHg 95%

    8 June, Monday

    Time Temperature Precipitation Wind Pressure Humidity
    00:00 +9°C° 2.6 mm 6 mps 768 mmHg 94%
    01:00 +9°C° 2.6 mm 6 mps 768 mmHg 94%
    02:00 +9°C° 0.5 mm 6 mps 768 mmHg 94%
    03:00 +8°C° 0.5 mm 5 mps 768 mmHg 93%
    04:00 +7°C° 0.5 mm 5 mps 768 mmHg 93%
    05:00 +7°C° 0.1 mm 5 mps 768 mmHg 93%
    06:00 +6°C° 0.1 mm 5 mps 769 mmHg 92%
    07:00 +6°C° 0.1 mm 5 mps 769 mmHg 92%
    08:00 +7°C° 0.1 mm 5 mps 770 mmHg 89%
    09:00 +10°C° 0.1 mm 4 mps 770 mmHg 85%
    10:00 +11°C° 0.1 mm 4 mps 770 mmHg 82%
    11:00 +12°C° 0.2 mm 4 mps 770 mmHg 78%
    12:00 +14°C° 0.2 mm 4 mps 769 mmHg 74%
    13:00 +15°C° 0.2 mm 5 mps 769 mmHg 70%
    14:00 +15°C° 0.2 mm 4 mps 769 mmHg 73%
    15:00 +15°C° 0.2 mm 4 mps 770 mmHg 75%
    16:00 +15°C° 0.2 mm 4 mps 770 mmHg 77%
    17:00 +13°C° 0.2 mm 4 mps 770 mmHg 82%
    18:00 +12°C° 0.2 mm 4 mps 771 mmHg 87%
    19:00 +11°C° 0.2 mm 4 mps 772 mmHg 92%
    20:00 +11°C° 0.4 mm 4 mps 772 mmHg 92%
    21:00 +11°C° 0.4 mm 4 mps 772 mmHg 93%
    22:00 +11°C° 0.4 mm 4 mps 772 mmHg 93%
    23:00 +11°C° 0.3 mm 4 mps 772 mmHg 92%

    9 June, Tuesday

    Time Temperature Precipitation Wind Pressure Humidity
    00:00 +12°C° 0.3 mm 4 mps 772 mmHg 92%
    01:00 +12°C° 0.3 mm 3 mps 772 mmHg 91%
    02:00 +12°C° 0.2 mm 3 mps 772 mmHg 91%
    03:00 +12°C° 0.2 mm 3 mps 772 mmHg 91%
    04:00 +12°C° 0.2 mm 3 mps 772 mmHg 91%
    05:00 +12°C° 0.3 mm 3 mps 772 mmHg 92%
    06:00 +12°C° 0.3 mm 3 mps 773 mmHg 93%
    07:00 +12°C° 0.3 mm 3 mps 773 mmHg 93%
    08:00 +12°C° 0.5 mm 3 mps 773 mmHg 94%
    09:00 +13°C° 0.5 mm 3 mps 773 mmHg 94%
    10:00 +13°C° 0.5 mm 3 mps 773 mmHg 95%
    11:00 +14°C° 0.7 mm 2 mps 773 mmHg 95%
    12:00 +14°C° 0.7 mm 2 mps 772 mmHg 95%
    13:00 +14°C° 0.7 mm 2 mps 772 mmHg 95%
    14:00 +15°C° 0.4 mm 2 mps 772 mmHg 95%
    15:00 +15°C° 0.4 mm 2 mps 772 mmHg 94%
    16:00 +14°C° 0.4 mm 3 mps 772 mmHg 93%
    17:00 +14°C° 0.3 mm 3 mps 772 mmHg 94%
    18:00 +13°C° 0.3 mm 3 mps 773 mmHg 95%
    19:00 +13°C° 0.3 mm 3 mps 773 mmHg 96%
    20:00 +13°C° 0.4 mm 3 mps 773 mmHg 96%
    21:00 +12°C° 0.4 mm 3 mps 773 mmHg 96%
    22:00 +13°C° 0.4 mm 2 mps 773 mmHg 97%
    23:00 +13°C° 0.1 mm 2 mps 773 mmHg 97%
    Show more